TURKSAT 4A

Last updated on Thu Jul 03 2025 00:02:46 GMT+0000 (Coordinated Universal Time)

1 39522U 14007A 25183.54975469 .00000153 00000+0 00000+0 0 9998 2 39522 0.0884 281.4355 0000891 0.9098 238.4018 1.00273955 41468
UTC large
Height (km)
Speed (km/s)
/
Latitude / Longitude
Inclination (degrees)
Orbital Period (minutes)
Azimuth
Elevation
Range (km)
Doppler Factor

Next 0 passes for location: London (51.5072 / 0.1276)

Sorry there are no passes over London.